Weather History for Canadian, TX

Change the Weather History Date:

Tuesday, October 1, 2013

  Actual Average (KPPA) Record (KPPA)
Temperature  
Mean Temperature 68 °F -  
Max Temperature 83 °F 79 °F 96 °F (1977)
Min Temperature 52 °F 53 °F 30 °F (1985)
Cooling Degree Days 2    
Growing Degree Days 18 (Base 50)    
Moisture  
Dew Point 57 °F    
Average Humidity 67    
Maximum Humidity 95    
Minimum Humidity 42    
Precipitation  
Precipitation 0.00 in - - ()
Sea Level Pressure  
Sea Level Pressure 29.86 in    
Wind  
Wind Speed 7 mph (SE)    
Max Wind Speed 15 mph    
Max Gust Speed 20 mph    
Visibility 10 miles    
Events      
Averages and records for this station are not official NWS values.
T = Trace of Precipitation, MM = Missing Value Source: NWS Daily Summary

Daily Weather History Graph

Daily Weather History Graph

Search for Another Location

Airport:

Trip Planner

Search our weather history database for the weather conditions in past years. The results will help you decide how hot, cold, wet, or windy it might be!

Date:

Astronomy

Oct. 01, 2013 Rise Set
Actual Time 7:36 AM CDT 7:24 PM CDT
Civil Twilight 7:11 AM CDT 7:50 PM CDT
Nautical Twilight 6:41 AM CDT 8:19 PM CDT
Astronomical Twilight 6:11 AM CDT 8:49 PM CDT
Moon 4:18 AM CDT (10/1) 5:25 PM CDT (10/1)
Length of Visible Light 12h 39m
Length of Day
11h 48m
Waning Crescent, 12% of the Moon is Illuminated
Oct 1
Waning Crescent
Oct 4
New
Oct 11
First Quarter
Oct 18
Full
Oct 26
Last Quarter

Hourly Weather History & Observations

Time (CDT) Temp. Heat Index Dew Point Humidity Pressure Visibility Wind Dir Wind Speed Gust Speed Precip Events Conditions
12:15 AM 69.1 °F - 53.8 °F 58% 29.81 in 10.0 mi South 12.7 mph - N/A   Clear
12:35 AM 68.9 °F - 53.8 °F 58% 29.81 in 10.0 mi SSE 12.7 mph 18.4 mph N/A   Clear
12:55 AM 68.0 °F - 54.0 °F 61% 29.81 in 10.0 mi South 9.2 mph - N/A   Clear
1:15 AM 67.5 °F - 54.3 °F 63% 29.81 in 10.0 mi South 6.9 mph - N/A   Clear
1:35 AM 66.6 °F - 54.5 °F 65% 29.81 in 10.0 mi SSW 3.5 mph - N/A   Clear
1:55 AM 66.2 °F - 54.5 °F 66% 29.82 in 10.0 mi South 4.6 mph - N/A   Clear
2:15 AM 65.8 °F - 54.5 °F 67% 29.81 in 10.0 mi South 4.6 mph - N/A   Clear
2:35 AM 64.4 °F - 54.5 °F 70% 29.81 in 10.0 mi SW 3.5 mph - N/A   Clear
2:55 AM 63.9 °F - 54.1 °F 71% 29.81 in 10.0 mi Calm Calm - N/A   Clear
3:15 AM 63.9 °F - 54.0 °F 70% 29.81 in 10.0 mi SSE 3.5 mph - N/A   Clear
3:35 AM 63.1 °F - 53.8 °F 71% 29.81 in 10.0 mi South 4.6 mph - N/A   Clear
3:55 AM 62.2 °F - 53.8 °F 74% 29.81 in 10.0 mi South 3.5 mph - N/A   Clear
4:15 AM 61.0 °F - 53.6 °F 77% 29.80 in 10.0 mi Calm Calm - N/A   Clear
4:35 AM 61.5 °F - 53.6 °F 75% 29.81 in 10.0 mi SSE 4.6 mph - N/A   Clear
4:55 AM 60.1 °F - 53.6 °F 79% 29.81 in 10.0 mi South 3.5 mph - N/A   Clear
5:15 AM 59.0 °F - 53.6 °F 82% 29.81 in 10.0 mi ENE 4.6 mph - N/A   Clear
5:35 AM 59.9 °F - 53.6 °F 80% 29.81 in 10.0 mi SE 5.8 mph - N/A   Clear
5:55 AM 56.8 °F - 52.9 °F 87% 29.82 in 10.0 mi Calm Calm - N/A   Clear
6:15 AM 59.5 °F - 53.4 °F 80% 29.82 in 10.0 mi Calm Calm - N/A   Clear
6:35 AM 56.8 °F - 52.9 °F 87% 29.82 in 10.0 mi Calm Calm - N/A   Clear
6:55 AM 54.9 °F - 52.0 °F 90% 29.83 in 10.0 mi Calm Calm - N/A   Clear
7:15 AM 55.0 °F - 52.3 °F 91% 29.83 in 10.0 mi Calm Calm - N/A   Clear
7:35 AM 55.2 °F - 52.7 °F 91% 29.84 in 10.0 mi Calm Calm - N/A   Clear
7:55 AM 53.1 °F - 51.1 °F 93% 29.84 in 10.0 mi Calm Calm - N/A   Clear
8:15 AM 52.3 °F - 51.1 °F 95% 29.85 in 10.0 mi Calm Calm - N/A   Clear
8:35 AM 55.8 °F - 53.6 °F 92% 29.85 in 10.0 mi ESE 3.5 mph - N/A   Clear
8:55 AM 59.0 °F - 55.0 °F 87% 29.86 in 10.0 mi East 3.5 mph - N/A   Clear
9:15 AM 59.9 °F - 54.7 °F 83% 29.87 in 10.0 mi ESE 4.6 mph - N/A   Clear
9:35 AM 61.2 °F - 55.4 °F 81% 29.87 in 10.0 mi ESE 3.5 mph - N/A   Clear
9:55 AM 63.5 °F - 56.1 °F 77% 29.88 in 10.0 mi SSE 4.6 mph - N/A   Clear
10:15 AM 64.6 °F - 56.3 °F 74% 29.88 in 10.0 mi SE 3.5 mph - N/A   Clear
10:35 AM 66.2 °F - 57.0 °F 72% 29.88 in 10.0 mi SE 5.8 mph - N/A   Clear
10:55 AM 66.9 °F - 57.0 °F 70% 29.89 in 10.0 mi SSE 3.5 mph - N/A   Clear
11:15 AM 69.1 °F - 58.1 °F 68% 29.89 in 10.0 mi SSE 4.6 mph - N/A   Clear
11:35 AM 70.2 °F - 57.7 °F 65% 29.89 in 10.0 mi ESE 5.8 mph - N/A   Clear
11:55 AM 71.6 °F - 58.5 °F 63% 29.89 in 10.0 mi ESE 6.9 mph - N/A   Clear
12:15 PM 72.9 °F - 57.9 °F 59% 29.89 in 10.0 mi SE 8.1 mph - N/A   Clear
12:35 PM 75.2 °F - 58.5 °F 56% 29.90 in 10.0 mi ESE 4.6 mph - N/A   Clear
12:55 PM 76.3 °F - 58.6 °F 54% 29.89 in 10.0 mi SE 9.2 mph - N/A   Clear
1:15 PM 76.8 °F - 57.7 °F 52% 29.89 in 10.0 mi SE 6.9 mph - N/A   Clear
1:35 PM 77.7 °F - 57.4 °F 49% 29.88 in 10.0 mi ESE 9.2 mph - N/A   Clear
1:55 PM 78.8 °F - 57.9 °F 49% 29.88 in 10.0 mi ESE 9.2 mph - N/A   Clear
2:15 PM 79.0 °F - 56.5 °F 46% 29.88 in 10.0 mi SE 8.1 mph - N/A   Clear
2:35 PM 80.2 °F 80.5 °F 57.0 °F 45% 29.87 in 10.0 mi SSE 8.1 mph - N/A   Clear
2:55 PM 80.8 °F 81.1 °F 58.3 °F 46% 29.87 in 10.0 mi SSE 10.4 mph - N/A   Clear
3:15 PM 81.5 °F 81.6 °F 58.5 °F 45% 29.87 in 10.0 mi SE 10.4 mph 16.1 mph N/A   Clear
3:35 PM 82.8 °F 82.7 °F 58.8 °F 44% 29.86 in 10.0 mi SSE 12.7 mph - N/A   Clear
3:55 PM 82.8 °F 82.7 °F 59.0 °F 44% 29.86 in 10.0 mi South 11.5 mph 19.6 mph N/A   Clear
4:15 PM 83.1 °F 83.0 °F 59.2 °F 44% 29.86 in 10.0 mi SE 15.0 mph 18.4 mph N/A   Clear
4:35 PM 83.3 °F 82.9 °F 58.1 °F 42% 29.85 in 10.0 mi SSE 10.4 mph 18.4 mph N/A   Clear
4:55 PM 83.3 °F 83.2 °F 59.5 °F 44% 29.85 in 10.0 mi SSE 13.8 mph 18.4 mph N/A   Clear
5:15 PM 83.3 °F 83.5 °F 60.8 °F 46% 29.85 in 10.0 mi SSE 12.7 mph - N/A   Clear
5:35 PM 83.3 °F 83.5 °F 60.3 °F 46% 29.85 in 10.0 mi SE 12.7 mph 18.4 mph N/A   Clear
5:55 PM 83.1 °F 83.2 °F 59.9 °F 45% 29.85 in 10.0 mi SSE 10.4 mph - N/A   Clear
6:15 PM 82.8 °F 83.3 °F 61.0 °F 48% 29.85 in 10.0 mi SSE 11.5 mph 19.6 mph N/A   Clear
6:35 PM 82.0 °F 82.7 °F 61.3 °F 49% 29.85 in 10.0 mi SSE 9.2 mph 17.3 mph N/A   Clear
6:55 PM 80.8 °F 81.8 °F 61.9 °F 52% 29.86 in 10.0 mi SSE 8.1 mph - N/A   Clear
7:15 PM 79.2 °F - 61.9 °F 55% 29.86 in 10.0 mi SE 4.6 mph - N/A   Clear
7:35 PM 76.5 °F - 62.2 °F 61% 29.87 in 10.0 mi ESE 5.8 mph - N/A   Clear
7:55 PM 74.3 °F - 62.6 °F 67% 29.87 in 10.0 mi ESE 5.8 mph - N/A   Clear
8:15 PM 72.7 °F - 62.6 °F 71% 29.87 in 10.0 mi ESE 4.6 mph - N/A   Clear
8:35 PM 72.5 °F - 62.2 °F 70% 29.88 in 10.0 mi ESE 8.1 mph - N/A   Clear
8:55 PM 71.6 °F - 61.9 °F 71% 29.88 in 10.0 mi ESE 5.8 mph - N/A   Clear
9:15 PM 70.3 °F - 61.7 °F 74% 29.88 in 10.0 mi ESE 8.1 mph - N/A   Clear
9:35 PM 70.0 °F - 61.7 °F 75% 29.89 in 10.0 mi ESE 3.5 mph - N/A   Clear
9:55 PM 70.5 °F - 60.8 °F 71% 29.89 in 10.0 mi SE 6.9 mph - N/A   Clear
10:15 PM 69.6 °F - 61.2 °F 74% 29.90 in 10.0 mi East 5.8 mph - N/A   Clear
10:35 PM 68.4 °F - 60.8 °F 77% 29.90 in 10.0 mi East 5.8 mph - N/A   Clear
10:55 PM 68.4 °F - 60.8 °F 77% 29.91 in 10.0 mi ESE 5.8 mph - N/A   Clear
11:15 PM 68.0 °F - 61.0 °F 78% 29.91 in 10.0 mi ESE 6.9 mph - N/A   Clear
11:35 PM 70.0 °F - 60.8 °F 73% 29.91 in 10.0 mi ESE 8.1 mph - N/A   Clear
11:55 PM 71.2 °F - 60.6 °F 69% 29.91 in 10.0 mi SE 9.2 mph - N/A   Clear